AirNav   Air Wisconsin Up To $57,000 Bonus
 
 1111 users online  

CA84 Torrey Pines Gliderport
San Diego, California, USA

GOING TO SAN DIEGO?


FAA INFORMATION EFFECTIVE 14 JULY 2022

Location

FAA Identifier: CA84
Lat/Long: 32-53-23.0000N 117-14-49.0000W
32-53.383333N 117-14.816667W
32.8897222,-117.2469444
(estimated)
Elevation: 372 ft. / 113 m (estimated)
Variation: 13E (1985)
From city: 11 miles NW of SAN DIEGO, CA
Time zone: UTC -7 (UTC -8 during Standard Time)
Zip code: 92037

Gliderport Operations

Gliderport use: Private use. Permission required prior to landing
Activation date: 11/1961
Control tower: no
ARTCC: LOS ANGELES CENTER
FSS: SAN DIEGO FLIGHT SERVICE STATION
Attendance: UNATNDD
Wind indicator: no
Segmented circle: no

Gliderport Communications

WX ASOS at MYF (7 nm SE): 126.9 (858-576-4337)
WX ASOS at SAN (10 nm S): PHONE 619-296-8934
WX AWOS-3P at SEE (14 nm E): 125.45 (619-449-1228)
WX ASOS at CRQ (14 nm N): PHONE 760-930-0864
WX ASOS at RNM (19 nm NE): PHONE 760-789-7699

Nearby radio navigation aids

VOR radial/distance  VOR name  Freq  Var
MZBr335/6.5MISSION BAY VORTAC117.8015E
PGYr307/21.5POGGI VORTAC116.4514E
OCNr143/22.7OCEANSIDE VORTAC115.3015E
TIJr313/25.7TIJUANA VOR/DME116.5012E
JLIr231/36.5JULIAN VORTAC114.0015E

Gliderport Services

Airframe service: NONE
Powerplant service: NONE

Runway Information

Runway 9/27

Dimensions: 1500 x 30 ft. / 457 x 9 m
Surface: asphalt
RUNWAY 9  RUNWAY 27
Traffic pattern: leftleft
Obstructions: nonetrees, 100 ft. from runway

Gliderport Ownership and Management from official FAA records

Ownership: Publicly-owned
Owner: CITY OF SAN DIEGO
202 C STREET MS 2A
SAN DIEGO, CA 92101
Manager: MAX MARIEN
2800 TORREY PINES SCENIC DRIVE
JO JOLLA, CA 92037
Phone 858-452-9858
WORK PHONE 619-535-9505 EXT 1585

Additional Remarks

GLIDER PORT IS LEASED FM CITY TO THE ASSOCD GLIDER CLUB OF SOUTHERN CALIF FOR STUDENT TRAINING & RIDGE SOARING.
ALL ACFT ARE TRAILERED GLIDERS.
ROLLING RWY .6 PERCENT GRADIENT.
EXTENSIVE HANG GLIDER OPERATIONS ON WEEKENDS AND WEEKDAYS.
FOR CD CTC LOS ANGELES ARTCC AT 661-575-2079.

Instrument Procedures

There are no published instrument procedures at CA84.

Some nearby airports with instrument procedures:

KNKX - Miramar MCAS (Joe Foss Field) Airport (5 nm E)
KMYF - Montgomery-Gibbs Executive Airport (7 nm SE)
KSAN - San Diego International Airport (10 nm S)
KNZY - North Island Naval Air Station (Halsey Field) (12 nm S)
KSEE - Gillespie Field Airport (14 nm E)
KCRQ - Mc Clellan-Palomar Airport (14 nm N)
KRNM - Ramona Airport (19 nm NE)
 
Loc | Ops | Rwys | IFR | FBO | Links
Com | Nav | Svcs | Stats | Notes
Area around CA84 (Torrey Pines Gliderport)
 
Road maps at: MapQuest Bing Google
 
Aerial photo
WARNING: Photo may not be current or correct
Aerial photo of CA84 (Torrey Pines Gliderport)
Photo by Doug Fronius
Photo taken 13-Mar-2004
from a 1942 Schweizer TG-2 sailplane.

Do you have a better or more recent aerial photo of Torrey Pines Gliderport that you would like to share? If so, please send us your photo.

 
Sectional chart

 
Airport distance calculator
Flying to Torrey Pines Gliderport? Find the distance to fly.

From to CA84

Sunrise and sunset
Times for 10-Aug-2022
 Local
(UTC-7)
 Zulu
(UTC)
Morning civil twilight05:4312:43
Sunrise06:1013:10
Sunset19:3902:39
Evening civil twilight20:0503:05

Current date and time
Zulu (UTC)  10-Aug-2022 23:59:44
Local (UTC-7)  10-Aug-2022 16:59:44
 
METAR
KNKX 
6nm E 
102255Z 31009KT 10SM FEW160 29/16 A2997 RMK AO2 SLP143 T02890161
KMYF 
7nm SE 
102353Z 28007KT 10SM CLR 28/16 A2998 RMK AO2 SLP145 T02830156 10322 20283 55006
KSAN 
10nm S 
102351Z 30007KT 10SM FEW050 SCT250 27/18 A2998 RMK AO2 SLP151 CB DSNT E AND SE T02670178 10294 20267 55008
KNZY 
11nm S 
102252Z 29011KT 10SM FEW050 SCT250 27/19 A2996 RMK AO2 SLP145 T02670194
KCRQ 
15nm N 
102353Z 28007KT 10SM CLR 26/17 A2997 RMK AO2 SLP143 T02610167 10278 20256 55009
KSEE 
15nm E 
102347Z 29010KT 10SM SKC 32/16 A2996
KRNM 
19nm NE 
102353Z AUTO 28009KT 10SM CLR 32/14 A3001 RMK AO2 SLP142 T03220139 10361 20322 55006
TAF
KNKX 
6nm E 
1021/1121 27010KT 9999 FEW160 QNH2994INS BECMG 1103/1105 VRB05KT 9999 FEW160 QNH2996INS FM110930 VRB05KT 9999 FEW010 FEW160 QNH2996INS TEMPO 1110/1116 BKN010 BECMG 1117/1119 28010KT 9999 SCT180 QNH2993INS T32/1021Z T19/1113Z
KSAN 
10nm S 
102038Z 1021/1124 29009KT P6SM FEW013 SCT200 FM110300 VRB04KT P6SM SCT010 SCT250 FM111900 29010KT P6SM SCT200
KNZY 
11nm S 
1023/1123 29011KT 9999 FEW050 SCT250 QNH2992INS FM110300 VRB04KT 9999 FEW010 SCT250 QNH2996INS TEMPO 1110/1114 8000 BR BKN008 FM111800 31006KT 9999 FEW015 SCT250 QNH2994INS T19/1112Z T28/1121Z FS30160
KCRQ 
15nm N 
101723Z 1018/1118 VRB04KT P6SM FEW200 FM101900 25008KT P6SM SCT150 FM110200 VRB04KT P6SM FEW150
NOTAMs
Click for the latest NOTAMs
NOTAMs are issued by the DoD/FAA and will open in a separate window not controlled by AirNav.

 

 
 

Would you like to see your business listed on this page?

 If your business provides an interesting product or service to pilots, flight crews, aircraft, or users of the Torrey Pines Gliderport, you should consider listing it here.  To start the listing process, click on the button below
 
Add a business
 

Other Pages about Torrey Pines Gliderport

www.agcsc.org/torrey_pines_info.html
 
Update a link
 
Copyright © AirNav, LLC. All rights reserved. Privacy Policy  Contact